Location: Poughquag
(41.6090°N, 73.6820°W)
Time: 16:10:17
(UTC-04:00)

METEOR M2 - Visible Passes

Search period start: 17 June 2025 00:00
Search period end: 27 June 2025 00:00
Orbit: 816 x 825 km, 98.5° (Epoch: 17 June)

Date Brightness Start Highest point End Pass type
(mag) Time Alt. Az. Time Alt. Az. Time Alt. Az.
19 Jun ? 04:38:12 10° NE 04:42:13 21° E 04:46:13 10° SE visible
20 Jun ? 04:18:51 10° ENE 04:21:27 14° E 04:24:04 10° ESE visible
24 Jun ? 04:35:47 10° NE 04:39:43 20° E 04:43:37 10° SE visible
25 Jun ? 04:16:32 10° ENE 04:18:57 13° E 04:21:21 10° ESE visible
